STARLINK-4285, 52991

Orbit data source: Space-Track

STARLINK-4285, 52991 is a payload satellite owned by SpaceX/Seattle (US) in LEO that was launched on Thu, 07 Jul 2022 UTC via an FALCON 9 launch vehicle from the Air Force Eastern Test Range (AFETR). Payload-class satellites include a variety of spacecraft equipped with specific instruments for various scientific and technological missions. These include communications satellites like Starlink; space stations such as the ISS; scientific satellites like the Hubble; Earth observation satellites from companies like Planet Labs, Umbra, and HawkEye 360; GPS; miniature CubeSats for education and research; and military/defense satellites.

Loading next visibility...
Identifier
52991, 2022-076F
Orbit
LEO
Country
Flag of USUS
Related business
Manufacturer
SpaceX/Seattle
Mission
Operational spacecraft
Bus & Motor
STARLINK, Unknown motor
Mass
297 kg wet, ~275 kg dry
Launch date (UTC)
2022-07-07 (3 years ago)
Launch vehicle
FALCON 9
Launch site
Air Force Eastern Test Range (AFETR)
Object type
Payload
Rocket body
Debris
Shape & HBR
Unknown shape, 10.1 m
Radar Cross Section
Large (>1 m²)

Expand to show TLE details & history
Last TLE update: 14 hours ago

TLE from 14 hours ago
0 STARLINK-4285
1 52991U 22076F   25341.20261679 -.00000770  00000-0 -30300-4 0  9997
2 52991  53.2170 159.3110 0001425  96.0883 264.0272 15.08826956188743
Epoch: 2025-12-07T04:51Z
TLE epoch observation values (Epoch: 2025-12-07T04:51:46.090Z)
Latitude
0.00001°
Longitude
10.14958°
Altitude
540.783 km
Speed
7.593 km/s
True Right ascension
10h 37m 14s
True Declination
0° 00' 00"
Sunlit
Object was in daylight at epoch
Visualization orbit readout
Latitude
Unknown
Longitude
Unknown
Altitude
Unknown
Speed
Unknown
Apparent Right ascension
Unknown
Apparent Declination
Unknown
Sunlit
N/A
Visualization observer readout
Local Sidereal Time
16:39:39
Azimuth
Unknown
Elevation
Unknown
Doppler factor
Unknown
Orbital elements
Apogee altitude
541.014 km
Perigee altitude
539.042 km
Semi-major axis
6,918.165 km
Eccentricity
0.00014
Inclination
53.217°
RAAN
159.311°
Arg. of periapsis
96.0883°
True anomaly
264.01096°
Mean anomaly
264.0272°
Eccentric anomaly
264.01908°
Mean motion
3.77187 °/min
Orbital period
95.44 mins
BSTAR
-0.0000303
Loading maneuver chart data...
Computing Atmospheric mass density...
Loading historical data...
Loading historical data...
Loading historical data...
Loading historical data...
Loading historical data...
Loading historical data...
Loading historical data...

Documentation

Showing up to 5 results
|